• In Belarus
  • List of Countries
  • For 7 days
  • Water Temperature
  • Satellite Maps
  • Weather Map
  • Weather Widgets
  • user-avatar
    Login

    Hourly Weather Olympia

    Today, 21 November, Wednesday

    Time Temperature Precipitation Wind Pressure Humidity
    00:00 +16°C° 1 mm 5 mps 758 mmHg 75%
    01:00 +16°C° 0 mm 5 mps 757 mmHg 80%
    02:00 +16°C° 1.1 mm 5 mps 757 mmHg 83%
    03:00 +17°C° 1.1 mm 4 mps 757 mmHg 87%
    04:00 +15°C° 1.1 mm 4 mps 757 mmHg 90%
    05:00 +15°C° 0.3 mm 4 mps 757 mmHg 90%
    06:00 +15°C° 0.3 mm 4 mps 757 mmHg 91%
    07:00 +16°C° 0.3 mm 3 mps 758 mmHg 91%
    08:00 +18°C° 0.1 mm 4 mps 758 mmHg 86%
    09:00 +19°C° 0.1 mm 4 mps 758 mmHg 80%
    10:00 +20°C° 0.1 mm 4 mps 758 mmHg 75%
    11:00 +20°C° 0.1 mm 4 mps 758 mmHg 74%
    12:00 +20°C° 0.1 mm 5 mps 758 mmHg 73%
    13:00 +20°C° 0.1 mm 5 mps 758 mmHg 72%
    14:00 +19°C° 0.1 mm 5 mps 758 mmHg 76%
    15:00 +19°C° 0.1 mm 4 mps 758 mmHg 80%
    16:00 +18°C° 0.1 mm 4 mps 759 mmHg 84%
    17:00 +17°C° 0 mm 4 mps 759 mmHg 86%
    18:00 +17°C° 0 mm 3 mps 759 mmHg 88%
    19:00 +16°C° 0 mm 3 mps 760 mmHg 90%
    20:00 +16°C° 0 mm 3 mps 760 mmHg 90%
    21:00 +16°C° 0 mm 3 mps 760 mmHg 91%
    22:00 +16°C° 0 mm 3 mps 761 mmHg 91%
    23:00 +16°C° 0 mm 3 mps 761 mmHg 91%

    Tomorrow, 22 November, Thursday

    Time Temperature Precipitation Wind Pressure Humidity
    00:00 +14°C° 0 mm 3 mps 761 mmHg 91%
    01:00 +14°C° 0 mm 3 mps 761 mmHg 91%
    02:00 +14°C° 0 mm 3 mps 761 mmHg 92%
    03:00 +15°C° 0 mm 2 mps 761 mmHg 92%
    04:00 +15°C° 0 mm 2 mps 761 mmHg 92%
    05:00 +15°C° 0 mm 2 mps 761 mmHg 92%
    06:00 +14°C° 0 mm 2 mps 761 mmHg 92%
    07:00 +14°C° 0 mm 2 mps 761 mmHg 92%
    08:00 +16°C° 0 mm 2 mps 762 mmHg 86%
    09:00 +18°C° 0 mm 1 mps 762 mmHg 79%
    10:00 +20°C° 0 mm 1 mps 762 mmHg 72%
    11:00 +19°C° 0 mm 2 mps 762 mmHg 70%
    12:00 +20°C° 0 mm 2 mps 762 mmHg 68%
    13:00 +20°C° 0 mm 2 mps 761 mmHg 66%
    14:00 +19°C° 0 mm 2 mps 762 mmHg 70%
    15:00 +18°C° 0 mm 2 mps 762 mmHg 75%
    16:00 +17°C° 0 mm 3 mps 762 mmHg 80%
    17:00 +17°C° 0 mm 3 mps 762 mmHg 83%
    18:00 +16°C° 0 mm 3 mps 763 mmHg 86%
    19:00 +14°C° 0 mm 3 mps 763 mmHg 89%
    20:00 +14°C° 0 mm 3 mps 763 mmHg 89%
    21:00 +14°C° 0 mm 3 mps 764 mmHg 89%
    22:00 +14°C° 0 mm 3 mps 764 mmHg 90%
    23:00 +15°C° 0 mm 2 mps 764 mmHg 90%

    Day after tomorrow, 23 November, Friday

    Time Temperature Precipitation Wind Pressure Humidity
    00:00 +14°C° 0 mm 2 mps 764 mmHg 90%
    01:00 +14°C° 0 mm 2 mps 764 mmHg 90%
    02:00 +14°C° 0 mm 2 mps 764 mmHg 90%
    03:00 +14°C° 0 mm 2 mps 764 mmHg 90%
    04:00 +14°C° 0 mm 2 mps 764 mmHg 90%
    05:00 +14°C° 0 mm 2 mps 765 mmHg 89%
    06:00 +14°C° 0 mm 2 mps 765 mmHg 88%
    07:00 +14°C° 0 mm 2 mps 766 mmHg 87%
    08:00 +15°C° 0 mm 2 mps 766 mmHg 78%
    09:00 +17°C° 0 mm 2 mps 766 mmHg 70%
    10:00 +20°C° 0 mm 1 mps 766 mmHg 62%
    11:00 +20°C° 0 mm 1 mps 766 mmHg 59%
    12:00 +21°C° 0 mm 1 mps 766 mmHg 56%
    13:00 +20°C° 0 mm 2 mps 766 mmHg 54%
    14:00 +19°C° 0 mm 2 mps 766 mmHg 58%
    15:00 +18°C° 0 mm 2 mps 766 mmHg 63%
    16:00 +17°C° 0 mm 2 mps 766 mmHg 68%
    17:00 +17°C° 0 mm 2 mps 766 mmHg 71%
    18:00 +16°C° 0 mm 2 mps 766 mmHg 74%
    19:00 +15°C° 0 mm 1 mps 767 mmHg 78%
    20:00 +15°C° 0 mm 1 mps 767 mmHg 79%
    21:00 +14°C° 0 mm 2 mps 767 mmHg 80%
    22:00 +14°C° 0 mm 2 mps 767 mmHg 81%
    23:00 +14°C° 0 mm 2 mps 767 mmHg 82%

    24 November, Saturday

    Time Temperature Precipitation Wind Pressure Humidity
    00:00 +14°C° 0 mm 2 mps 767 mmHg 82%
    01:00 +13°C° 0 mm 2 mps 767 mmHg 83%
    02:00 +13°C° 0 mm 2 mps 766 mmHg 83%
    03:00 +13°C° 0 mm 2 mps 766 mmHg 83%
    04:00 +13°C° 0 mm 2 mps 766 mmHg 83%
    05:00 +13°C° 0 mm 2 mps 766 mmHg 83%
    06:00 +13°C° 0 mm 2 mps 766 mmHg 83%
    07:00 +13°C° 0 mm 2 mps 766 mmHg 82%
    08:00 +15°C° 0 mm 2 mps 766 mmHg 75%
    09:00 +17°C° 0 mm 2 mps 766 mmHg 68%
    10:00 +19°C° 0 mm 1 mps 766 mmHg 60%
    11:00 +20°C° 0 mm 1 mps 766 mmHg 60%
    12:00 +19°C° 0 mm 2 mps 765 mmHg 59%
    13:00 +19°C° 0 mm 2 mps 765 mmHg 59%
    14:00 +18°C° 0 mm 2 mps 765 mmHg 64%
    15:00 +18°C° 0 mm 1 mps 764 mmHg 70%
    16:00 +16°C° 0 mm 1 mps 764 mmHg 76%
    17:00 +16°C° 0 mm 2 mps 764 mmHg 78%
    18:00 +16°C° 0 mm 2 mps 764 mmHg 81%
    19:00 +15°C° 0 mm 2 mps 764 mmHg 83%
    20:00 +15°C° 0.4 mm 2 mps 764 mmHg 84%
    21:00 +15°C° 0.4 mm 2 mps 764 mmHg 85%
    22:00 +15°C° 0.4 mm 2 mps 764 mmHg 86%
    23:00 +15°C° 0.6 mm 2 mps 764 mmHg 87%

    25 November, Sunday

    Time Temperature Precipitation Wind Pressure Humidity
    00:00 +15°C° 0.6 mm 2 mps 764 mmHg 89%
    01:00 +15°C° 0.6 mm 2 mps 763 mmHg 90%
    02:00 +15°C° 0.2 mm 2 mps 763 mmHg 89%
    03:00 +15°C° 0.2 mm 2 mps 762 mmHg 89%
    04:00 +14°C° 0.2 mm 3 mps 762 mmHg 88%
    05:00 +14°C° 0.1 mm 3 mps 762 mmHg 88%
    06:00 +14°C° 0.1 mm 3 mps 762 mmHg 87%
    07:00 +14°C° 0.1 mm 3 mps 762 mmHg 87%
    08:00 +16°C° 0.1 mm 3 mps 762 mmHg 83%
    09:00 +18°C° 0.1 mm 3 mps 762 mmHg 79%
    10:00 +19°C° 0.1 mm 4 mps 762 mmHg 75%
    11:00 +19°C° 0.3 mm 4 mps 761 mmHg 76%
    12:00 +19°C° 0.3 mm 4 mps 761 mmHg 77%
    13:00 +19°C° 0.3 mm 4 mps 760 mmHg 78%
    14:00 +19°C° 0.8 mm 4 mps 760 mmHg 82%
    15:00 +18°C° 0.8 mm 4 mps 759 mmHg 86%
    16:00 +17°C° 0.8 mm 3 mps 759 mmHg 90%
    17:00 +17°C° 1.2 mm 4 mps 759 mmHg 91%
    18:00 +17°C° 1.2 mm 4 mps 759 mmHg 91%
    19:00 +17°C° 1.2 mm 4 mps 759 mmHg 92%
    20:00 +16°C° 1.7 mm 5 mps 758 mmHg 92%
    21:00 +16°C° 1.7 mm 6 mps 758 mmHg 92%
    22:00 +16°C° 1.7 mm 6 mps 758 mmHg 92%
    23:00 +15°C° 1.1 mm 7 mps 757 mmHg 91%

    26 November, Monday

    Time Temperature Precipitation Wind Pressure Humidity
    00:00 +15°C° 1.1 mm 7 mps 756 mmHg 90%
    01:00 +15°C° 1.1 mm 7 mps 756 mmHg 89%
    02:00 +15°C° 2 mm 7 mps 755 mmHg 90%
    03:00 +15°C° 2 mm 6 mps 755 mmHg 90%
    04:00 +15°C° 2 mm 6 mps 754 mmHg 91%
    05:00 +15°C° 1.1 mm 6 mps 754 mmHg 92%
    06:00 +15°C° 1.1 mm 5 mps 754 mmHg 92%
    07:00 +16°C° 1.1 mm 5 mps 754 mmHg 93%
    08:00 +16°C° 0.8 mm 5 mps 754 mmHg 92%
    09:00 +16°C° 0.8 mm 5 mps 754 mmHg 90%
    10:00 +16°C° 0.8 mm 5 mps 755 mmHg 88%
    11:00 +17°C° 0.5 mm 5 mps 754 mmHg 87%
    12:00 +17°C° 0.5 mm 5 mps 754 mmHg 86%
    13:00 +17°C° 0.5 mm 5 mps 754 mmHg 85%
    14:00 +16°C° 0.4 mm 5 mps 754 mmHg 86%
    15:00 +17°C° 0.4 mm 4 mps 755 mmHg 88%
    16:00 +15°C° 0.4 mm 4 mps 755 mmHg 89%
    17:00 +15°C° 0.2 mm 4 mps 755 mmHg 90%
    18:00 +14°C° 0.2 mm 3 mps 756 mmHg 92%
    19:00 +14°C° 0.2 mm 3 mps 756 mmHg 93%
    20:00 +15°C° 0.2 mm 2 mps 756 mmHg 93%
    21:00 +15°C° 0.2 mm 2 mps 757 mmHg 93%
    22:00 +15°C° 0.2 mm 2 mps 757 mmHg 93%
    23:00 +14°C° 0.2 mm 3 mps 757 mmHg 93%
    Show more